Time,TemperatureF,DewpointF,PressureIn,WindDirection,WindDirectionDegrees,WindSpeedMPH,WindSpeedGustMPH,Humidity,HourlyPrecipIn,Conditions,Clouds,dailyrainin,SoftwareType,DateUTC
2013-11-02 00:22:00,45.0,42.0,-100.00,WNW,285,0.0,0.0,90,-99.99,,,-99.99,,2013-11-02 05:22:00,
2013-11-02 00:52:00,45.0,43.0,-100.00,WNW,285,0.0,0.0,90,-99.99,,,-99.99,,2013-11-02 05:52:00,
2013-11-02 01:22:00,45.0,43.0,-100.00,West,280,0.0,0.0,92,-99.99,,,-99.99,,2013-11-02 06:22:00,
2013-11-02 01:52:00,46.0,44.0,-100.00,West,280,0.0,0.0,93,-99.99,,,-99.99,,2013-11-02 06:52:00,
2013-11-02 02:22:00,46.0,44.0,-100.00,West,275,0.0,0.0,93,-99.99,,,-99.99,,2013-11-02 07:22:00,
2013-11-02 02:52:00,45.0,44.0,-100.00,NNW,330,0.0,0.0,93,-99.99,,,-99.99,,2013-11-02 07:52:00,
2013-11-02 03:22:00,46.0,45.0,-100.00,NW,310,0.0,0.0,95,-99.99,,,-99.99,,2013-11-02 08:22:00,
2013-11-02 03:52:00,46.0,45.0,-100.00,NW,305,0.0,0.0,95,-99.99,,,-99.99,,2013-11-02 08:52:00,
2013-11-02 04:21:00,45.0,44.0,-100.00,NW,310,0.0,0.0,97,-99.99,,,-99.99,,2013-11-02 09:21:00,
2013-11-02 04:53:00,45.0,44.0,-100.00,NW,305,0.0,0.0,98,-99.99,,,-99.99,,2013-11-02 09:53:00,
2013-11-02 05:23:00,45.0,44.0,-100.00,NW,315,0.0,0.0,98,-99.99,,,-99.99,,2013-11-02 10:23:00,
2013-11-02 05:53:00,45.0,45.0,-100.00,NW,305,0.0,0.0,99,-99.99,,,-99.99,,2013-11-02 10:53:00,
2013-11-02 06:22:00,45.0,45.0,-100.00,WNW,300,0.0,0.0,99,-99.99,,,-99.99,,2013-11-02 11:22:00,
2013-11-02 06:52:00,44.0,44.0,-100.00,NW,320,0.0,0.0,99,-99.99,,,-99.99,,2013-11-02 11:52:00,
2013-11-02 07:21:00,43.0,43.0,-100.00,NW,305,0.0,0.0,99,-99.99,,,-99.99,,2013-11-02 12:21:00,
2013-11-02 07:52:00,42.0,42.0,-100.00,NW,315,0.0,0.0,99,-99.99,,,-99.99,,2013-11-02 12:52:00,
2013-11-02 08:22:00,41.0,41.0,-100.00,NNW,335,0.0,0.0,99,-99.99,,,-99.99,,2013-11-02 13:22:00,
2013-11-02 08:52:00,41.0,41.0,-100.00,NNW,330,0.0,0.0,99,-99.99,,,-99.99,,2013-11-02 13:52:00,
2013-11-02 09:21:00,43.0,41.0,-100.00,NNW,330,0.0,0.0,94,-99.99,,,-99.99,,2013-11-02 14:21:00,
2013-11-02 09:52:00,43.0,40.0,-100.00,NNW,335,0.0,0.0,89,-99.99,,,-99.99,,2013-11-02 14:52:00,
2013-11-02 10:22:00,44.0,38.0,-100.00,NNW,345,0.0,0.0,80,-99.99,,,-99.99,,2013-11-02 15:22:00,
2013-11-02 10:53:00,45.0,37.0,-100.00,North,0,0.0,0.0,72,-99.99,,,-99.99,,2013-11-02 15:53:00,
2013-11-02 11:23:00,48.0,35.0,-100.00,North,355,0.0,0.0,60,-99.99,,,-99.99,,2013-11-02 16:23:00,
2013-11-02 11:54:00,50.0,34.0,-100.00,NNW,335,0.0,0.0,54,-99.99,,,-99.99,,2013-11-02 16:54:00,
2013-11-02 12:22:00,51.0,35.0,-100.00,NW,325,0.0,0.0,53,-99.99,,,-99.99,,2013-11-02 17:22:00,
2013-11-02 12:53:00,53.0,35.0,-100.00,NNW,340,0.0,0.0,50,-99.99,,,-99.99,,2013-11-02 17:53:00,
2013-11-02 13:22:00,53.0,39.0,-100.00,NW,315,0.0,0.0,59,-99.99,,,-99.99,,2013-11-02 18:22:00,
2013-11-02 13:53:00,52.0,39.0,-100.00,NW,305,0.0,0.0,60,-99.99,,,-99.99,,2013-11-02 18:53:00,
2013-11-02 14:22:00,51.0,37.0,-100.00,NW,325,0.0,0.0,57,-99.99,,,-99.99,,2013-11-02 19:22:00,
2013-11-02 14:52:00,56.0,37.0,-100.00,NW,325,0.0,0.0,48,-99.99,,,-99.99,,2013-11-02 19:52:00,
2013-11-02 15:22:00,55.0,34.0,-100.00,NW,315,0.0,0.0,45,-99.99,,,-99.99,,2013-11-02 20:22:00,
2013-11-02 15:53:00,54.0,32.0,-100.00,NW,315,0.0,0.0,43,-99.99,,,-99.99,,2013-11-02 20:53:00,
2013-11-02 16:22:00,54.0,33.0,-100.00,NW,325,0.0,0.0,45,-99.99,,,-99.99,,2013-11-02 21:22:00,
2013-11-02 16:54:00,53.0,31.0,-100.00,NW,325,0.0,0.0,43,-99.99,,,-99.99,,2013-11-02 21:54:00,
2013-11-02 17:24:00,53.0,31.0,-100.00,NW,310,0.0,0.0,43,-99.99,,,-99.99,,2013-11-02 22:24:00,
2013-11-02 17:54:00,52.0,31.0,-100.00,North,0,0.0,0.0,45,-99.99,,,-99.99,,2013-11-02 22:54:00,
2013-11-02 18:22:00,49.0,31.0,-100.00,NW,315,0.0,0.0,49,-99.99,,,-99.99,,2013-11-02 23:22:00,
2013-11-02 18:52:00,47.0,30.0,-100.00,NW,305,0.0,0.0,53,-99.99,,,-99.99,,2013-11-02 23:52:00,
2013-11-02 19:22:00,44.0,31.0,-100.00,West,280,0.0,0.0,59,-99.99,,,-99.99,,2013-11-03 00:22:00,
2013-11-02 19:52:00,42.0,33.0,-100.00,West,280,0.0,0.0,71,-99.99,,,-99.99,,2013-11-03 00:52:00,
2013-11-02 20:22:00,40.0,34.0,-100.00,West,280,0.0,0.0,77,-99.99,,,-99.99,,2013-11-03 01:22:00,
2013-11-02 20:52:00,41.0,34.0,-100.00,West,280,0.0,0.0,78,-99.99,,,-99.99,,2013-11-03 01:52:00,
2013-11-02 21:21:00,38.0,34.0,-100.00,WNW,300,0.0,0.0,84,-99.99,,,-99.99,,2013-11-03 02:21:00,
2013-11-02 21:52:00,37.0,34.0,-100.00,WNW,290,0.0,0.0,89,-99.99,,,-99.99,,2013-11-03 02:52:00,
2013-11-02 22:22:00,36.0,35.0,-100.00,NW,315,0.0,0.0,94,-99.99,,,-99.99,,2013-11-03 03:22:00,
2013-11-02 22:54:00,35.0,34.0,-100.00,WSW,240,0.0,0.0,98,-99.99,,,-99.99,,2013-11-03 03:54:00,
2013-11-02 23:02:00,-999.0,-99.9,-100.00,WSW,250,0.0,0.0,-999,-99.99,,,-99.99,,2013-11-03 04:02:00,
2013-11-02 23:23:00,34.0,34.0,-100.00,NNW,330,0.0,0.0,99,-99.99,,,-99.99,,2013-11-03 04:23:00,
2013-11-02 23:52:00,33.0,32.0,-100.00,WNW,295,0.0,0.0,99,-99.99,,,-99.99,,2013-11-03 04:52:00,